Meteo pe oră la Dzierznica

Astăzi, 5 Martie, Vineri

Timp Temperatura Precipitaţii Vânt Presiune Umiditate
00:00 -2°C° 0.1 mm 4 m/s 753 mmHg 90%
01:00 -2°C° 0 mm 4 m/s 753 mmHg 91%
02:00 -2°C° 0 mm 4 m/s 753 mmHg 88%
03:00 -3°C° 0 mm 4 m/s 753 mmHg 86%
04:00 -2°C° 0 mm 3 m/s 753 mmHg 84%
05:00 -2°C° 0 mm 3 m/s 754 mmHg 84%
06:00 -4°C° 0 mm 3 m/s 754 mmHg 85%
07:00 -4°C° 0 mm 3 m/s 755 mmHg 85%
08:00 -2°C° 0 mm 3 m/s 755 mmHg 77%
09:00 -2°C° 0 mm 4 m/s 756 mmHg 70%
10:00 0°C° 0 mm 4 m/s 756 mmHg 62%
11:00 0°C° 0 mm 4 m/s 756 mmHg 58%
12:00 +1°C° 0 mm 4 m/s 757 mmHg 54%
13:00 +3°C° 0 mm 4 m/s 757 mmHg 49%
14:00 +3°C° 0.1 mm 4 m/s 757 mmHg 48%
15:00 +3°C° 0.1 mm 4 m/s 757 mmHg 47%
16:00 +3°C° 0.1 mm 4 m/s 758 mmHg 46%
17:00 0°C° 0 mm 4 m/s 758 mmHg 51%
18:00 0°C° 0 mm 3 m/s 759 mmHg 56%
19:00 -1°C° 0 mm 3 m/s 759 mmHg 61%
20:00 -1°C° 0 mm 3 m/s 760 mmHg 64%
21:00 -1°C° 0 mm 3 m/s 760 mmHg 66%
22:00 -2°C° 0 mm 3 m/s 761 mmHg 69%
23:00 -2°C° 0 mm 3 m/s 761 mmHg 71%

Mâine, 6 Martie, Sâmbătă

Timp Temperatura Precipitaţii Vânt Presiune Umiditate
00:00 -2°C° 0 mm 3 m/s 762 mmHg 73%
01:00 -2°C° 0 mm 2 m/s 762 mmHg 75%
02:00 -2°C° 0 mm 2 m/s 762 mmHg 75%
03:00 -3°C° 0 mm 2 m/s 762 mmHg 75%
04:00 -4°C° 0 mm 3 m/s 762 mmHg 75%
05:00 -4°C° 0 mm 3 m/s 762 mmHg 75%
06:00 -4°C° 0 mm 3 m/s 762 mmHg 75%
07:00 -4°C° 0 mm 3 m/s 763 mmHg 74%
08:00 -1°C° 0 mm 3 m/s 763 mmHg 67%
09:00 0°C° 0 mm 3 m/s 763 mmHg 60%
10:00 +1°C° 0 mm 3 m/s 763 mmHg 53%
11:00 +1°C° 0 mm 4 m/s 763 mmHg 49%
12:00 +3°C° 0 mm 4 m/s 762 mmHg 44%
13:00 +3°C° 0 mm 5 m/s 762 mmHg 40%
14:00 +3°C° 0 mm 5 m/s 762 mmHg 43%
15:00 +3°C° 0 mm 5 m/s 761 mmHg 45%
16:00 +2°C° 0 mm 5 m/s 761 mmHg 48%
17:00 +1°C° 0 mm 5 m/s 761 mmHg 55%
18:00 0°C° 0 mm 5 m/s 760 mmHg 62%
19:00 -1°C° 0 mm 4 m/s 760 mmHg 69%
20:00 -1°C° 0 mm 5 m/s 760 mmHg 74%
21:00 -1°C° 0 mm 5 m/s 760 mmHg 79%
22:00 -1°C° 0 mm 5 m/s 760 mmHg 85%
23:00 -2°C° 0 mm 6 m/s 759 mmHg 85%

Poimâine, 7 Martie, Duminică

Timp Temperatura Precipitaţii Vânt Presiune Umiditate
00:00 -2°C° 0 mm 6 m/s 759 mmHg 86%
01:00 -2°C° 0 mm 6 m/s 759 mmHg 86%
02:00 -2°C° 0 mm 6 m/s 759 mmHg 83%
03:00 -2°C° 0 mm 7 m/s 758 mmHg 80%
04:00 -2°C° 0 mm 7 m/s 758 mmHg 76%
05:00 -2°C° 0 mm 7 m/s 757 mmHg 76%
06:00 -3°C° 0 mm 7 m/s 757 mmHg 76%
07:00 -3°C° 0 mm 7 m/s 757 mmHg 77%
08:00 -3°C° 0 mm 7 m/s 757 mmHg 76%
09:00 -2°C° 0 mm 7 m/s 756 mmHg 75%
10:00 -2°C° 0 mm 7 m/s 756 mmHg 74%
11:00 -2°C° 0 mm 7 m/s 756 mmHg 72%
12:00 -1°C° 0 mm 7 m/s 756 mmHg 70%
13:00 -1°C° 0 mm 7 m/s 756 mmHg 67%
14:00 -1°C° 0 mm 7 m/s 755 mmHg 68%
15:00 -1°C° 0 mm 7 m/s 754 mmHg 68%
16:00 -1°C° 0 mm 7 m/s 754 mmHg 69%
17:00 -1°C° 0 mm 6 m/s 753 mmHg 71%
18:00 -2°C° 0 mm 6 m/s 753 mmHg 73%
19:00 -1°C° 0 mm 5 m/s 753 mmHg 76%
20:00 -1°C° 0 mm 5 m/s 753 mmHg 78%
21:00 -3°C° 0 mm 6 m/s 753 mmHg 80%
22:00 -3°C° 0 mm 6 m/s 752 mmHg 83%
23:00 -3°C° 0 mm 6 m/s 752 mmHg 86%

8 Martie, Luni

Timp Temperatura Precipitaţii Vânt Presiune Umiditate
00:00 -2°C° 0 mm 6 m/s 752 mmHg 88%
01:00 -2°C° 0 mm 6 m/s 752 mmHg 91%
02:00 -2°C° 0.2 mm 6 m/s 752 mmHg 93%
03:00 -1°C° 0.2 mm 5 m/s 752 mmHg 94%
04:00 -2°C° 0.2 mm 5 m/s 752 mmHg 96%
05:00 -2°C° 0.3 mm 4 m/s 752 mmHg 93%
06:00 -2°C° 0.3 mm 3 m/s 752 mmHg 90%
07:00 -2°C° 0.3 mm 3 m/s 753 mmHg 87%
08:00 -1°C° 0 mm 3 m/s 753 mmHg 77%
09:00 0°C° 0 mm 3 m/s 754 mmHg 67%
10:00 0°C° 0 mm 4 m/s 754 mmHg 57%
11:00 0°C° 0 mm 4 m/s 754 mmHg 55%
12:00 +1°C° 0 mm 4 m/s 755 mmHg 54%
13:00 +1°C° 0 mm 4 m/s 755 mmHg 52%
14:00 +1°C° 0 mm 4 m/s 755 mmHg 53%
15:00 +1°C° 0 mm 4 m/s 755 mmHg 54%
16:00 +1°C° 0 mm 4 m/s 755 mmHg 55%
17:00 -1°C° 0 mm 4 m/s 756 mmHg 61%
18:00 -1°C° 0 mm 3 m/s 756 mmHg 66%
19:00 -2°C° 0 mm 3 m/s 757 mmHg 72%
20:00 -2°C° 0 mm 2 m/s 757 mmHg 74%
21:00 -3°C° 0 mm 2 m/s 757 mmHg 76%
22:00 -3°C° 0 mm 2 m/s 758 mmHg 78%
23:00 -3°C° 0 mm 2 m/s 758 mmHg 78%

9 Martie, Marţi

Timp Temperatura Precipitaţii Vânt Presiune Umiditate
00:00 -3°C° 0 mm 2 m/s 758 mmHg 77%
01:00 -4°C° 0 mm 2 m/s 758 mmHg 76%
02:00 -4°C° 0 mm 2 m/s 758 mmHg 76%
03:00 -2°C° 0 mm 1 m/s 758 mmHg 75%
04:00 -2°C° 0 mm 1 m/s 758 mmHg 74%
05:00 -2°C° 0 mm 1 m/s 758 mmHg 73%
06:00 -2°C° 0 mm 1 m/s 758 mmHg 73%
07:00 -2°C° 0 mm 1 m/s 758 mmHg 72%
08:00 -3°C° 0 mm 2 m/s 758 mmHg 67%
09:00 -2°C° 0 mm 2 m/s 758 mmHg 61%
10:00 -2°C° 0 mm 2 m/s 758 mmHg 55%
11:00 -1°C° 0 mm 2 m/s 758 mmHg 51%
12:00 +1°C° 0 mm 2 m/s 758 mmHg 48%
13:00 +1°C° 0 mm 2 m/s 758 mmHg 45%
14:00 +1°C° 0 mm 2 m/s 757 mmHg 44%
15:00 +1°C° 0 mm 2 m/s 757 mmHg 44%
16:00 +1°C° 0 mm 2 m/s 757 mmHg 44%
17:00 -1°C° 0 mm 2 m/s 757 mmHg 48%
18:00 -2°C° 0 mm 2 m/s 757 mmHg 52%
19:00 -3°C° 0 mm 2 m/s 757 mmHg 56%
20:00 -3°C° 0 mm 2 m/s 757 mmHg 56%
21:00 -3°C° 0 mm 2 m/s 757 mmHg 56%
22:00 -3°C° 0 mm 2 m/s 757 mmHg 56%
23:00 -3°C° 0 mm 2 m/s 757 mmHg 57%

10 Martie, Miercuri

Timp Temperatura Precipitaţii Vânt Presiune Umiditate
00:00 -3°C° 0 mm 2 m/s 757 mmHg 57%
01:00 -3°C° 0 mm 2 m/s 757 mmHg 57%
02:00 -3°C° 0 mm 2 m/s 757 mmHg 58%
03:00 -3°C° 0 mm 2 m/s 756 mmHg 59%
04:00 -3°C° 0 mm 2 m/s 756 mmHg 61%
05:00 -3°C° 0 mm 2 m/s 756 mmHg 61%
06:00 -3°C° 0 mm 2 m/s 756 mmHg 62%
07:00 -4°C° 0 mm 3 m/s 756 mmHg 63%
08:00 -2°C° 0 mm 3 m/s 756 mmHg 61%
09:00 0°C° 0 mm 3 m/s 756 mmHg 59%
10:00 0°C° 0 mm 4 m/s 756 mmHg 58%
11:00 +1°C° 0 mm 4 m/s 755 mmHg 63%
12:00 +1°C° 0 mm 4 m/s 755 mmHg 68%
13:00 +3°C° 0 mm 4 m/s 755 mmHg 72%
14:00 +3°C° 0 mm 4 m/s 754 mmHg 74%
15:00 +4°C° 0 mm 4 m/s 754 mmHg 76%
16:00 +4°C° 0 mm 4 m/s 753 mmHg 77%
17:00 +3°C° 0 mm 4 m/s 752 mmHg 80%
18:00 +1°C° 0 mm 4 m/s 752 mmHg 83%
19:00 0°C° 0 mm 4 m/s 752 mmHg 86%
20:00 0°C° 0 mm 4 m/s 751 mmHg 85%
21:00 0°C° 0 mm 4 m/s 751 mmHg 84%
22:00 0°C° 0 mm 5 m/s 750 mmHg 83%
23:00 0°C° 0 mm 5 m/s 750 mmHg 82%
Arată mai mult

Formular de consimțământ

Meteoprog și furnizorii noștri de servicii pot stoca și accesa date personale, precum cookies, identificatori de dispozitiv sau alte tehnologii similare pe dispozitivul dumneavoastră și procesa astfel de date pentru a personaliza conținutul și reclamele, dar și pentru a oferi caracteristici de social media și pentru a analiza traficul.

  • Stocarea și/sau accesarea informațiilor pe dispozitivul dumneavoastră

    Cookies, identificatori de dispozitiv sau alte informații pot fi stocate sau accesate pe dispozitiv în scopurile indicate mai sus.

  • Reclame și conținut personalizat, evaluarea reclamelor și a conținutului, informații despre audiențe și dezvoltarea produselor

    Reclamele și conținutul pot fi personalizate pe baza unui profil. Pot fi adăugate date suplimentare pentru a personaliza mai bine reclamele și conținutul. Performanța reclamelor și conținutului poate fi măsurată. Pot fi obținute informații despre utilizatorii care au văzut reclamele și conținutul. Aceste date pot fi utilizate pentru a dezvolta sau îmbunătăți experiența utilizatorilor, sistemele și software-ul.

Dând clic pe ‘Sunt de acord’, permiteți utilizarea cookie-urilor menționate, a identificatorilor de dispozitiv, balizelor web sau altor tehnologii similare. Setările pot fi modificate din browser-ul dispozitivului dumneavoastră.

În anumite scopuri, interesele legitime pot prima asupra consimțământului. Puteți citi mai multe informații în acest sens în Politica privind Confidențialitatea Datelor și Cookie.